Richmond, VA

1:16 PM EDT on July 25, 2017 (GMT -0400)
Richmond International

Weather History for KRIC - February, 2014

Change the Weather History Date:

Thursday, February 20, 2014

  Actual Average Record
Temperature  
Mean Temperature 48 °F 42 °F  
Max Temperature 58 °F 53 °F 77 °F (1930)
Min Temperature 37 °F 31 °F 3 °F (1979)
Degree Days  
Heating Degree Days 17 23  
Month to date heating degree days 523 498  
Since 1 July heating degree days 2776 2759  
Cooling Degree Days 0 0  
Month to date cooling degree days 0 0  
Year to date cooling degree days 0 0  
Moisture  
Dew Point 31 °F    
Average Humidity 50    
Maximum Humidity 71    
Minimum Humidity 28    
Precipitation  
Precipitation 0.00 in 0.10 in 1.32 in (1921)
Month to date precipitation 2.67 1.94  
Year to date precipitation 5.95 4.98  
Snow  
Snow 0.00 in 0.10 in 5.60 in (1947)
Month to date snowfall 5.8 2.6  
Since 1 July snowfall 10.9 8.8  
Snow Depth 0.00 in    
Sea Level Pressure  
Sea Level Pressure 30.15 in    
Wind  
Wind Speed 5 mph (ESE)    
Max Wind Speed 17 mph    
Max Gust Speed 21 mph    
Visibility 10 miles    
Events      
T = Trace of Precipitation, MM = Missing Value Source: NWS Daily Summary

Daily Weather History Graph

Daily Weather History Graph

Search for Another Location

Airport or City:

Trip Planner

Search our weather history database for the weather conditions in past years. The results will help you decide how hot, cold, wet, or windy it might be!

Date:

Astronomy

Feb. 20, 2014 Rise Set
Actual Time 6:52 AM EST 5:53 PM EST
Civil Twilight 6:25 AM EST 6:20 PM EST
Nautical Twilight 5:55 AM EST 6:51 PM EST
Astronomical Twilight 5:25 AM EST 7:21 PM EST
Moon 11:38 PM EST (2/20) 9:41 AM EST (2/20)
Length of Visible Light 11h 54m
Length of Day
11h 01m
Waning Gibbous, 71% of the Moon is Illuminated
Feb 20
Waning Gibbous
Feb 22
Last Quarter
Mar 1
New
Mar 8
First Quarter
Mar 16
Full

Hourly Weather History & Observations

Time (EST) Temp. Windchill Dew Point Humidity Pressure Visibility Wind Dir Wind Speed Gust Speed Precip Events Conditions
12:54 AM 50.0 °F - 26.1 °F 39% 30.15 in 10.0 mi NE 9.2 mph - N/A   Mostly Cloudy
1:54 AM 48.9 °F - 27.0 °F 43% 30.19 in 10.0 mi ENE 5.8 mph - N/A   Mostly Cloudy
2:54 AM 48.0 °F - 27.0 °F 44% 30.19 in 10.0 mi ENE 4.6 mph - N/A   Mostly Cloudy
3:54 AM 46.9 °F - 28.0 °F 48% 30.19 in 10.0 mi NE 6.9 mph - N/A   Mostly Cloudy
4:54 AM 42.1 °F 40.2 °F 28.0 °F 58% 30.21 in 10.0 mi SE 3.5 mph - N/A   Overcast
5:54 AM 41.0 °F - 28.0 °F 60% 30.24 in 10.0 mi Calm Calm - N/A   Scattered Clouds
6:54 AM 37.9 °F - 28.9 °F 70% 30.25 in 10.0 mi Calm Calm - N/A   Mostly Cloudy
7:54 AM 42.1 °F - 32.0 °F 67% 30.27 in 10.0 mi Calm Calm - N/A   Mostly Cloudy
8:54 AM 46.9 °F - 28.9 °F 50% 30.28 in 10.0 mi ESE 5.8 mph - N/A   Mostly Cloudy
9:54 AM 50.0 °F - 25.0 °F 38% 30.27 in 10.0 mi SE 16.1 mph - N/A   Overcast
10:54 AM 53.1 °F - 26.1 °F 35% 30.25 in 10.0 mi SE 8.1 mph - N/A   Overcast
11:54 AM 54.0 °F - 21.0 °F 28% 30.23 in 10.0 mi SSE 10.4 mph - N/A   Overcast
12:54 PM 57.0 °F - 25.0 °F 29% 30.17 in 10.0 mi ESE 13.8 mph - N/A   Mostly Cloudy
1:54 PM 55.9 °F - 28.9 °F 36% 30.14 in 10.0 mi SE 10.4 mph - N/A   Overcast
2:54 PM 57.0 °F - 33.1 °F 40% 30.12 in 10.0 mi SSE 6.9 mph - N/A   Overcast
3:54 PM 57.0 °F - 36.0 °F 45% 30.09 in 10.0 mi SE 5.8 mph - N/A   Overcast
4:54 PM 55.9 °F - 37.0 °F 49% 30.08 in 10.0 mi ESE 6.9 mph - N/A   Overcast
5:54 PM 53.1 °F - 37.0 °F 55% 30.07 in 10.0 mi ESE 4.6 mph - N/A   Overcast
6:54 PM 53.1 °F - 37.9 °F 57% 30.07 in 10.0 mi ESE 3.5 mph - N/A   Overcast
7:54 PM 52.0 °F - 37.9 °F 59% 30.06 in 10.0 mi ENE 3.5 mph - N/A   Overcast
8:54 PM 50.0 °F - 37.9 °F 63% 30.03 in 10.0 mi Calm Calm - N/A   Overcast
9:54 PM 50.0 °F - 37.9 °F 63% 30.02 in 10.0 mi Calm Calm - N/A   Overcast
10:54 PM 48.0 °F - 39.0 °F 71% 30.01 in 10.0 mi Calm Calm - N/A   Overcast
11:54 PM 46.0 °F - 39.0 °F 76% 29.98 in 10.0 mi Calm Calm - N/A   Overcast